Regional Weather Roundup
Issued by NWS Upton, NY

Home | Current Version | Previous Version | Text Only | Print | Product List | Glossary On
Versions: 1 2 3 4 5 6 7 8 9 10 11 12 13 14 15 16 17 18 19 20 21 22 23 24 25 26 27 28 29 30 31 32 33 34 35 36 37 38 39 40 41 42 43 44 45 46 47 48 49 50
915
ASUS41 KOKX 221608
RWROKX

REGIONAL WEATHER ROUNDUP
NATIONAL WEATHER SERVICE NEW YORK NY
1100 AM EST SUN JAN 22 2017

NOTE: "FAIR" INDICATES FEW OR NO CLOUDS BELOW 12,000 FEET WITH NO
SIGNIFICANT WEATHER AND/OR OBSTRUCTIONS TO VISIBILITY.

NYZ071-072-176-178-NJZ106-104-221700-
NEW YORK CITY METRO AREA

CITY           SKY/WX    TMP DP  RH WIND       PRES   REMARKS
Central Park   CLOUDY    46  45  96 E6        29.77S FOG
Wall St Helipt CLOUDY    46  43  89 NE9       29.75F
LaGuardia APRT FOG       44  43  96 NE12      29.75R VSB 1/2
Kennedy INTL   CLOUDY    48  48 100 NE6       29.76R FOG
Breezy Point     N/A     43 N/A N/A SE3         N/A
Newark/Liberty FOG       47  46  97 N8        29.74S VSB 1/4
Teterboro      FOG       47  46  97 N3        29.74S VSB 1
$$

NYZ177-179-078>081-221700-
LONG ISLAND NEW YORK

CITY           SKY/WX    TMP DP  RH WIND       PRES   REMARKS
Jones Beach      N/A     43 N/A N/A E7          N/A
Matinecock PT    N/A     41 N/A N/A E10         N/A
Farmingdale    CLOUDY    47  45  93 NE6       29.75R FOG
MacArthur/ISP  CLOUDY    48  46  93 SE7       29.74S
Shirley        CLOUDY    48  46  93 VRB5      29.76S
Westhampton    PTSUNNY   47  42  83 SE7       29.77R
Southampton    NOT AVBL
Bridgehampton  NOT AVBL
East Hampton     N/A     48  43  85 E7        29.75F
Montauk          N/A     42  42 100 NE8       29.77F
$$

NYZ052-065-067-221700-
HUDSON VALLEY

CITY           SKY/WX    TMP DP  RH WIND       PRES   REMARKS
White Plains   FOG       44  43  96 E5        29.74R VSB 1/2
Newburgh       PTSUNNY   43  43 100 NW6       29.76R FOG
Montgomery     CLOUDY    46  43  89 NE3       29.73F
Poughkeepsie   CLOUDY    43  42  97 NW6       29.75S FOG
Albany         CLOUDY    42  38  85 NW7       29.78R FOG
$$

NJZ001-105-106-008-010-013-015-019>022-104-221700-
NEW JERSEY

CITY           SKY/WX    TMP DP  RH WIND       PRES   REMARKS
Newark/Liberty FOG       47  46  97 N8        29.74S VSB 1/4
Teterboro      FOG       47  46  97 N3        29.74S VSB 1
Caldwell       CLOUDY    45  45 100 NE5       29.74F FOG
Somerville     CLOUDY    46  44  93 CALM      29.73S FOG
Linden         CLOUDY    47  46  99 CALM      29.75S FOG
Sussex         CLOUDY    45  43  93 CALM      29.74S
Andover          N/A     43  42  97 CALM      29.74R
Trenton        CLOUDY    46  45  96 NE6       29.73F FOG
Millville      CLOUDY    48  48 100 N7        29.70S FOG
Atlantic City  CLOUDY    50  48  93 NE7       29.70S VSB 1
Wrightstown    CLOUDY    47  47  99 N7        29.70F
Toms River     CLOUDY    48  47  96 NE8       29.73S FOG
Belmar         CLOUDY    45  45 100 N8        29.74S FOG
$$

PAZ047>061-062-071-221700-
EASTERN PENNSYLVANIA

CITY           SKY/WX    TMP DP  RH WIND       PRES   REMARKS
Philadelphia   CLOUDY    48  46  93 VRB7      29.74S FOG
Allentown      FOG       43  41  93 NW5       29.74F VSB 1/4
Scranton       FOG       43  43 100 CALM      29.73R VSB<1/4
$$

CTZ002-004>006-009-010-012-RIZ004-006-007-MAZ004-011-015-221700-
SOUTHERN NEW ENGLAND
 IN CT

CITY           SKY/WX    TMP DP  RH WIND       PRES   REMARKS
Bradley INTL   CLOUDY    44  42  93 N8        29.79R
Hartford       CLOUDY    44  42  93 N3        29.79R FOG
Danbury        SUNNY     51  43  74 NE5       29.75F
Wtrbury/Oxford MOSUNNY   48  43  81 NE8       29.76S
Bridgeport     FOG       43  41  93 E7        29.77R VSB 1/4
Meriden        SUNNY     50  42  74 N5        29.76F
New Haven      CLOUDY    44  43  96 NE7       29.76S FOG
Chester          N/A     48  46  93 VRB7      29.76S
Groton         CLOUDY    43  42  97 E6        29.76F FOG
Wilimantic     CLOUDY    49  44  83 CALM      29.78R

 IN RI

CITY           SKY/WX    TMP DP  RH WIND       PRES   REMARKS
Providence     CLOUDY    46  42  86 CALM      29.80S FOG
Block Island   NOT AVBL
Westerly       MOSUNNY   45  42  89 SE3       29.78S
 IN MA

CITY           SKY/WX    TMP DP  RH WIND       PRES   REMARKS
Boston         CLOUDY    46  42  86 NE12      29.82S
Worcester      CLOUDY    42  37  82 NE8       29.78R
Westfield      CLOUDY    41  39  93 NE5       29.80R FOG
Provincetown   CLOUDY    45  43  93 N5        29.80F
Nantucket      MOSUNNY   50  45  83 NE6       29.77F
$$

ANZ330-335-338-340-345-350-353-355-221700-
COASTAL MARINE OBSERVATIONS


STATION/POSITION TIME  SKY/WX   TEMP    WIND        PRES    VSBY  WAVE
                                AIR SEA DIR/SP/G                  HT/PER
                 (UTC)          (F)     (DEG/KT/KT) (MB)    (MI)  (FT/S)
NY HARB ENTRANCE 1450            43 44   50/ 12/ 14 1006.6          3/14
20 S FIRE ISLAND 1550            45 45   50/ 12/ 14 1006.5          3/11
GREAT SOUTH BAY  NOT AVBL
23 SSW MONTAUK P 1450            45 47   80/ 12/ 14 1007.9          3/13
15 E BARNEGAT LI 1530               48                N/A           4/12
HUDSON CANYON    1450            53 52              1005.5          5/13
KINGS POINT      1542            42 40              1007.3
EXECUTION ROCKS  1545            41      40/ 10/ 12   N/A
CENTRAL LI SOUND 1515            41      80/  6/  8   N/A           0
EASTERN LI SOUND NOT AVBL
ROBBINS REEF     1548            45      40/  6/  6 1007.4
$$


>>>>>>>>>>>>>>>>>>>>>>>>>>>> KEY <<<<<<<<<<<<<<<<<<<<<<<<<<<
>                                                          <
>     SKY/WX - Sky Condition/Present Weather               <
>     TMP    - Temperature in Fahrenheit                   <
>     DP     - Dew Point in Fahrenheit                     <
>     RH     - Relative Humidity in Percent                <
>     WIND   - Direction (from) and Speed in MPH           <
>     PRES   - Mean Sea Level Pressure (inches of Hg)      <
>     WCI    - Wind Chill Index                            <
>     VSB    - VISIBILITY IN MILES                         <
>     HX     - HEAT INDEX                                  <
>     TC     - TEMPERATURE IN CELSIUS                      <
>     VRB    - VARIABLE WIND DIRECTION                     <
>                                                          <
>>>>>>>>>>>>>>>>>>>>>>>>>>>> KEY <<<<<<<<<<<<<<<<<<<<<<<<<<<




USA.gov is the U.S. government's official web portal to all federal, state and local government web resources and services.